QPF
0.00 0.00 0.00 0.00 0.00 0.00 0.00 0.00 0.00 0.00 0.01 0.01 0.01 0.01 0.01 0.01 0.01 0.02 0.01 0.01 0.01 0.02 0.05 0.09 0.15 0.26 0.33 0.29 0.23 0.17 0.12 0.08 0.09 0.10 0.12 0.08 0.03 0.01 0.01 0.01 0.00 0.00 0.00
0.00 0.00 0.00 0.00 0.00 0.00 0.00 0.00 0.00 0.00 0.01 0.01 0.01 0.02 0.01 0.01 0.01 0.03 0.03 0.02 0.02 0.02 0.02 0.04 0.09 0.16 0.24 0.30 0.31 0.28 0.23 0.18 0.14 0.17 0.17 0.13 0.08 0.05 0.03 0.01 0.00 0.00 0.00
0.00 0.00 0.00 0.00 0.00 0.00 0.00 0.00 0.00 0.01 0.01 0.01 0.02 0.02 0.03 0.02 0.03 0.03 0.03 0.03 0.03 0.02 0.02 0.03 0.04 0.10 0.19 0.26 0.29 0.29 0.29 0.26 0.21 0.21 0.20 0.19 0.14 0.09 0.04 0.01 0.00 0.00 0.00
0.00 0.00 0.00 0.00 0.00 0.00 0.00 0.00 0.01 0.01 0.01 0.02 0.03 0.04 0.04 0.04 0.03 0.04 0.04 0.05 0.05 0.03 0.02 0.02 0.02 0.04 0.09 0.20 0.30 0.32 0.31 0.31 0.29 0.25 0.24 0.22 0.18 0.13 0.05 0.01 0.01 0.00 0.00
0.00 0.00 0.00 0.01 0.01 0.01 0.01 0.01 0.01 0.01 0.02 0.03 0.03 0.04 0.05 0.05 0.03 0.04 0.06 0.06 0.07 0.06 0.04 0.03 0.02 0.02 0.03 0.08 0.18 0.31 0.36 0.35 0.32 0.29 0.27 0.26 0.21 0.13 0.06 0.02 0.01 0.00 0.00
0.01 0.01 0.01 0.01 0.01 0.01 0.01 0.02 0.02 0.03 0.04 0.04 0.04 0.05 0.06 0.04 0.02 0.03 0.05 0.06 0.08 0.10 0.08 0.06 0.04 0.03 0.02 0.02 0.06 0.14 0.29 0.39 0.39 0.33 0.30 0.30 0.24 0.17 0.12 0.05 0.02 0.01 0.00
0.01 0.01 0.01 0.01 0.02 0.02 0.02 0.02 0.03 0.05 0.06 0.06 0.06 0.07 0.08 0.09 0.04 0.03 0.02 0.05 0.08 0.10 0.12 0.10 0.05 0.02 0.04 0.03 0.02 0.05 0.12 0.25 0.38 0.41 0.36 0.34 0.34 0.28 0.19 0.09 0.03 0.02 0.00
0.01 0.01 0.01 0.02 0.02 0.02 0.03 0.04 0.06 0.07 0.07 0.07 0.07 0.08 0.10 0.09 0.05 0.04 0.03 0.05 0.07 0.09 0.11 0.11 0.08 0.06 0.07 0.08 0.06 0.04 0.05 0.09 0.19 0.31 0.35 0.36 0.39 0.42 0.33 0.21 0.12 0.05 0.01
0.01 0.01 0.01 0.02 0.02 0.03 0.03 0.05 0.07 0.08 0.08 0.08 0.08 0.09 0.11 0.12 0.07 0.04 0.04 0.07 0.09 0.09 0.09 0.09 0.09 0.09 0.07 0.06 0.09 0.08 0.06 0.06 0.09 0.17 0.27 0.33 0.37 0.42 0.45 0.30 0.16 0.04 0.01
0.01 0.01 0.01 0.02 0.03 0.04 0.05 0.06 0.08 0.09 0.08 0.09 0.08 0.10 0.11 0.13 0.10 0.04 0.04 0.08 0.12 0.12 0.13 0.13 0.11 0.11 0.09 0.04 0.07 0.09 0.08 0.07 0.07 0.09 0.15 0.23 0.29 0.32 0.36 0.30 0.17 0.05 0.01
0.01 0.01 0.01 0.03 0.04 0.04 0.06 0.07 0.08 0.09 0.09 0.09 0.09 0.10 0.12 0.12 0.09 0.03 0.02 0.08 0.14 0.16 0.16 0.15 0.12 0.07 0.04 0.02 0.03 0.07 0.07 0.08 0.08 0.09 0.11 0.16 0.23 0.30 0.29 0.29 0.22 0.09 0.02
0.01 0.01 0.02 0.03 0.03 0.03 0.06 0.07 0.09 0.10 0.09 0.10 0.10 0.11 0.13 0.12 0.08 0.04 0.01 0.04 0.11 0.19 0.19 0.16 0.14 0.09 0.04 0.02 0.01 0.03 0.03 0.04 0.06 0.08 0.11 0.14 0.18 0.22 0.23 0.24 0.23 0.16 0.06
0.01 0.01 0.02 0.02 0.03 0.06 0.09 0.09 0.10 0.11 0.11 0.10 0.10 0.11 0.13 0.14 0.09 0.02 0.00 0.01 0.04 0.12 0.16 0.17 0.14 0.08 0.04 0.02 0.01 0.01 0.01 0.02 0.04 0.05 0.07 0.11 0.16 0.18 0.19 0.23 0.20 0.13 0.07
0.01 0.01 0.02 0.02 0.03 0.06 0.09 0.09 0.10 0.12 0.09 0.08 0.08 0.10 0.12 0.14 0.12 0.07 0.04 0.02 0.02 0.05 0.08 0.08 0.07 0.04 0.03 0.03 0.02 0.01 0.01 0.01 0.02 0.04 0.06 0.11 0.18 0.20 0.18 0.16 0.16 0.12 0.06
0.01 0.01 0.01 0.02 0.04 0.07 0.09 0.10 0.07 0.07 0.03 0.02 0.04 0.07 0.10 0.12 0.09 0.06 0.08 0.09 0.07 0.07 0.08 0.10 0.08 0.06 0.04 0.06 0.07 0.06 0.04 0.02 0.01 0.03 0.08 0.13 0.17 0.19 0.14 0.10 0.10 0.08 0.06
0.01 0.01 0.01 0.02 0.05 0.08 0.09 0.10 0.07 0.02 0.00 0.00 0.00 0.01 0.02 0.03 0.01 0.00 0.01 0.01 0.01 0.02 0.05 0.12 0.14 0.13 0.10 0.09 0.09 0.09 0.07 0.05 0.03 0.04 0.10 0.14 0.15 0.17 0.13 0.07 0.06 0.06 0.05
0.01 0.01 0.01 0.03 0.06 0.09 0.10 0.12 0.15 0.10 0.03 0.01 0.00 0.00 0.00 0.00 0.00 0.00 0.00 0.00 0.00 0.00 0.02 0.08 0.13 0.15 0.15 0.14 0.11 0.10 0.08 0.07 0.07 0.07 0.11 0.17 0.14 0.14 0.13 0.08 0.04 0.04 0.04
0.01 0.01 0.02 0.04 0.08 0.11 0.11 0.12 0.14 0.17 0.15 0.09 0.03 0.00 0.00 0.00 0.00 0.00 0.00 0.00 0.00 0.00 0.02 0.07 0.11 0.15 0.17 0.15 0.12 0.09 0.08 0.08 0.09 0.09 0.14 0.20 0.20 0.15 0.12 0.09 0.05 0.03 0.03
0.01 0.01 0.02 0.03 0.07 0.11 0.12 0.12 0.12 0.15 0.17 0.15 0.10 0.03 0.00 0.00 0.00 0.00 0.00 0.02 0.05 0.05 0.05 0.08 0.10 0.12 0.14 0.15 0.13 0.11 0.10 0.08 0.08 0.11 0.16 0.20 0.23 0.19 0.14 0.10 0.07 0.05 0.02
0.01 0.01 0.01 0.02 0.05 0.10 0.11 0.11 0.11 0.14 0.15 0.14 0.13 0.07 0.03 0.02 0.03 0.02 0.01 0.04 0.08 0.09 0.10 0.11 0.12 0.12 0.13 0.13 0.11 0.09 0.09 0.09 0.10 0.13 0.19 0.23 0.23 0.22 0.17 0.11 0.08 0.05 0.03
0.00 0.01 0.02 0.02 0.05 0.08 0.09 0.09 0.10 0.12 0.13 0.13 0.10 0.04 0.02 0.05 0.10 0.08 0.06 0.06 0.07 0.09 0.10 0.09 0.09 0.10 0.11 0.11 0.09 0.08 0.09 0.10 0.10 0.14 0.21 0.29 0.26 0.25 0.22 0.16 0.09 0.06 0.04
0.01 0.01 0.03 0.02 0.04 0.06 0.05 0.08 0.11 0.11 0.11 0.11 0.10 0.03 0.01 0.03 0.08 0.09 0.07 0.06 0.05 0.05 0.06 0.05 0.04 0.06 0.07 0.08 0.08 0.08 0.09 0.10 0.12 0.16 0.22 0.33 0.32 0.28 0.25 0.21 0.14 0.09 0.07
0.01 0.01 0.02 0.02 0.03 0.04 0.04 0.07 0.10 0.10 0.09 0.09 0.08 0.06 0.04 0.05 0.07 0.07 0.07 0.05 0.05 0.05 0.05 0.05 0.05 0.07 0.09 0.09 0.08 0.08 0.10 0.11 0.13 0.16 0.23 0.32 0.35 0.31 0.26 0.21 0.16 0.11 0.08
0.00 0.01 0.01 0.02 0.02 0.03 0.05 0.06 0.08 0.08 0.07 0.07 0.06 0.06 0.06 0.07 0.08 0.07 0.06 0.06 0.07 0.06 0.06 0.07 0.07 0.07 0.09 0.08 0.08 0.10 0.13 0.15 0.18 0.20 0.23 0.30 0.31 0.30 0.25 0.20 0.15 0.12 0.09
0.00 0.01 0.01 0.02 0.02 0.03 0.04 0.06 0.07 0.08 0.09 0.08 0.06 0.06 0.07 0.08 0.08 0.08 0.08 0.07 0.07 0.07 0.08 0.08 0.08 0.09 0.07 0.07 0.08 0.12 0.17 0.20 0.24 0.25 0.28 0.30 0.29 0.26 0.23 0.19 0.14 0.12 0.09
0.00 0.00 0.01 0.02 0.02 0.02 0.03 0.06 0.07 0.07 0.09 0.10 0.10 0.08 0.08 0.09 0.09 0.09 0.09 0.08 0.07 0.08 0.09 0.11 0.12 0.11 0.11 0.10 0.10 0.14 0.18 0.21 0.24 0.26 0.27 0.27 0.27 0.24 0.21 0.18 0.14 0.11 0.08
MSLP
1011.06 1011.09 1011.13 1011.14 1011.09 1010.96 1010.74 1010.44 1010.09 1009.72 1009.37 1009.04 1008.76 1008.52 1008.30 1008.12 1007.94 1007.79 1007.67 1007.59 1007.57 1007.62 1007.74 1007.93 1008.15 1008.39 1008.61 1008.79 1008.90 1008.95 1008.94 1008.90 1008.86 1008.83 1008.86 1008.96 1009.13 1009.37 1009.68 1010.02 1010.38 1010.73 1011.05
1010.88 1010.84 1010.83 1010.80 1010.72 1010.57 1010.35 1010.06 1009.74 1009.40 1009.07 1008.77 1008.50 1008.27 1008.06 1007.86 1007.69 1007.52 1007.39 1007.29 1007.25 1007.29 1007.39 1007.57 1007.79 1008.05 1008.29 1008.51 1008.68 1008.80 1008.86 1008.89 1008.90 1008.92 1008.98 1009.10 1009.28 1009.52 1009.82 1010.16 1010.51 1010.86 1011.18
1010.74 1010.66 1010.58 1010.49 1010.36 1010.16 1009.92 1009.62 1009.30 1008.98 1008.68 1008.40 1008.17 1007.96 1007.77 1007.59 1007.41 1007.24 1007.09 1006.96 1006.89 1006.89 1006.96 1007.11 1007.32 1007.57 1007.84 1008.10 1008.34 1008.53 1008.68 1008.79 1008.87 1008.96 1009.07 1009.22 1009.42 1009.67 1009.97 1010.30 1010.66 1011.02 1011.36
1010.62 1010.49 1010.37 1010.21 1010.01 1009.76 1009.47 1009.15 1008.81 1008.50 1008.21 1007.97 1007.76 1007.58 1007.42 1007.25 1007.08 1006.90 1006.72 1006.56 1006.45 1006.39 1006.42 1006.53 1006.71 1006.96 1007.25 1007.56 1007.86 1008.14 1008.38 1008.58 1008.76 1008.92 1009.09 1009.28 1009.50 1009.76 1010.06 1010.40 1010.76 1011.14 1011.51
1010.45 1010.31 1010.14 1009.94 1009.68 1009.36 1009.02 1008.65 1008.29 1007.97 1007.69 1007.46 1007.27 1007.11 1006.96 1006.81 1006.64 1006.44 1006.24 1006.04 1005.88 1005.77 1005.75 1005.82 1005.99 1006.24 1006.55 1006.90 1007.27 1007.63 1007.96 1008.25 1008.52 1008.75 1008.98 1009.20 1009.44 1009.72 1010.02 1010.37 1010.75 1011.16 1011.58
1010.21 1010.07 1009.89 1009.64 1009.32 1008.96 1008.55 1008.14 1007.74 1007.39 1007.10 1006.86 1006.68 1006.53 1006.38 1006.23 1006.05 1005.84 1005.61 1005.38 1005.18 1005.03 1004.97 1005.02 1005.17 1005.42 1005.75 1006.15 1006.58 1007.01 1007.42 1007.79 1008.13 1008.43 1008.70 1008.95 1009.21 1009.50 1009.81 1010.17 1010.58 1011.02 1011.50
1009.89 1009.76 1009.57 1009.29 1008.94 1008.52 1008.06 1007.60 1007.16 1006.77 1006.44 1006.19 1005.99 1005.82 1005.67 1005.50 1005.31 1005.08 1004.83 1004.58 1004.36 1004.19 1004.12 1004.15 1004.30 1004.56 1004.91 1005.35 1005.82 1006.30 1006.77 1007.20 1007.59 1007.93 1008.23 1008.51 1008.79 1009.09 1009.41 1009.79 1010.22 1010.71 1011.26
1009.49 1009.39 1009.19 1008.90 1008.52 1008.05 1007.54 1007.03 1006.53 1006.10 1005.73 1005.43 1005.20 1005.01 1004.83 1004.65 1004.44 1004.21 1003.95 1003.70 1003.48 1003.32 1003.25 1003.29 1003.44 1003.72 1004.09 1004.54 1005.04 1005.55 1006.05 1006.51 1006.92 1007.29 1007.61 1007.91 1008.20 1008.51 1008.85 1009.25 1009.71 1010.25 1010.85
1009.07 1008.98 1008.79 1008.48 1008.06 1007.55 1007.00 1006.43 1005.88 1005.39 1004.98 1004.64 1004.36 1004.14 1003.94 1003.74 1003.53 1003.30 1003.07 1002.84 1002.64 1002.51 1002.46 1002.52 1002.69 1002.97 1003.35 1003.80 1004.30 1004.81 1005.30 1005.76 1006.18 1006.55 1006.88 1007.19 1007.49 1007.82 1008.19 1008.62 1009.12 1009.70 1010.36
1008.70 1008.60 1008.39 1008.05 1007.59 1007.04 1006.44 1005.82 1005.23 1004.69 1004.22 1003.84 1003.53 1003.28 1003.06 1002.87 1002.67 1002.47 1002.26 1002.08 1001.93 1001.83 1001.82 1001.91 1002.10 1002.38 1002.75 1003.18 1003.65 1004.12 1004.59 1005.02 1005.42 1005.78 1006.12 1006.44 1006.76 1007.12 1007.52 1007.99 1008.53 1009.15 1009.85
1008.40 1008.27 1008.02 1007.64 1007.13 1006.54 1005.89 1005.23 1004.59 1004.01 1003.51 1003.10 1002.77 1002.51 1002.30 1002.12 1001.95 1001.79 1001.64 1001.51 1001.42 1001.38 1001.41 1001.51 1001.71 1001.98 1002.31 1002.70 1003.11 1003.53 1003.94 1004.33 1004.70 1005.04 1005.38 1005.72 1006.08 1006.47 1006.92 1007.43 1008.02 1008.68 1009.41
1008.18 1008.00 1007.69 1007.25 1006.70 1006.06 1005.37 1004.67 1004.01 1003.41 1002.90 1002.48 1002.15 1001.90 1001.71 1001.57 1001.45 1001.34 1001.26 1001.19 1001.15 1001.16 1001.22 1001.34 1001.52 1001.75 1002.04 1002.35 1002.69 1003.04 1003.38 1003.72 1004.05 1004.38 1004.72 1005.09 1005.49 1005.93 1006.43 1007.00 1007.63 1008.32 1009.08
1008.03 1007.77 1007.39 1006.88 1006.27 1005.59 1004.87 1004.15 1003.48 1002.88 1002.38 1001.99 1001.69 1001.48 1001.34 1001.24 1001.18 1001.14 1001.11 1001.10 1001.12 1001.15 1001.22 1001.33 1001.48 1001.67 1001.88 1002.12 1002.37 1002.64 1002.91 1003.19 1003.49 1003.80 1004.16 1004.56 1005.00 1005.51 1006.07 1006.69 1007.36 1008.08 1008.85
1007.87 1007.53 1007.07 1006.49 1005.83 1005.11 1004.37 1003.66 1003.01 1002.44 1001.98 1001.62 1001.38 1001.23 1001.14 1001.11 1001.11 1001.13 1001.16 1001.19 1001.23 1001.28 1001.34 1001.42 1001.52 1001.64 1001.78 1001.93 1002.10 1002.28 1002.49 1002.72 1002.99 1003.31 1003.68 1004.11 1004.60 1005.16 1005.78 1006.45 1007.16 1007.91 1008.68
1007.65 1007.22 1006.68 1006.05 1005.35 1004.61 1003.87 1003.18 1002.56 1002.04 1001.64 1001.35 1001.18 1001.09 1001.08 1001.11 1001.16 1001.23 1001.29 1001.34 1001.38 1001.42 1001.45 1001.49 1001.53 1001.58 1001.64 1001.72 1001.81 1001.93 1002.09 1002.29 1002.54 1002.86 1003.24 1003.71 1004.25 1004.85 1005.52 1006.23 1006.97 1007.73 1008.50
1007.31 1006.80 1006.20 1005.52 1004.79 1004.05 1003.32 1002.67 1002.10 1001.65 1001.32 1001.11 1001.01 1001.00 1001.04 1001.12 1001.22 1001.31 1001.38 1001.43 1001.45 1001.46 1001.45 1001.44 1001.42 1001.41 1001.41 1001.42 1001.47 1001.55 1001.67 1001.85 1002.10 1002.42 1002.83 1003.32 1003.88 1004.52 1005.21 1005.95 1006.71 1007.48 1008.24
1006.84 1006.27 1005.62 1004.91 1004.16 1003.43 1002.73 1002.12 1001.61 1001.23 1000.97 1000.83 1000.80 1000.84 1000.94 1001.06 1001.17 1001.26 1001.33 1001.36 1001.35 1001.31 1001.26 1001.19 1001.13 1001.07 1001.03 1001.02 1001.04 1001.10 1001.22 1001.40 1001.65 1001.98 1002.40 1002.90 1003.48 1004.12 1004.82 1005.56 1006.32 1007.09 1007.84
1006.27 1005.66 1004.98 1004.24 1003.49 1002.77 1002.11 1001.54 1001.08 1000.76 1000.56 1000.48 1000.50 1000.58 1000.70 1000.83 1000.95 1001.03 1001.07 1001.06 1001.02 1000.94 1000.84 1000.74 1000.65 1000.57 1000.52 1000.50 1000.53 1000.60 1000.74 1000.93 1001.19 1001.54 1001.95 1002.45 1003.02 1003.65 1004.34 1005.06 1005.81 1006.56 1007.30
1005.69 1005.04 1004.33 1003.58 1002.83 1002.12 1001.48 1000.94 1000.53 1000.24 1000.09 1000.04 1000.08 1000.19 1000.31 1000.44 1000.53 1000.59 1000.59 1000.55 1000.47 1000.36 1000.23 1000.11 1000.01 999.94 999.90 999.91 999.97 1000.07 1000.24 1000.46 1000.74 1001.09 1001.51 1001.99 1002.53 1003.14 1003.79 1004.48 1005.19 1005.92 1006.64
1005.16 1004.48 1003.76 1003.00 1002.25 1001.54 1000.91 1000.39 999.99 999.72 999.58 999.54 999.59 999.68 999.79 999.89 999.96 999.98 999.95 999.88 999.76 999.63 999.50 999.38 999.29 999.24 999.24 999.29 999.40 999.55 999.76 1000.02 1000.32 1000.67 1001.08 1001.54 1002.05 1002.61 1003.22 1003.86 1004.54 1005.23 1005.94
1004.76 1004.07 1003.32 1002.55 1001.80 1001.09 1000.46 999.93 999.53 999.25 999.10 999.04 999.06 999.13 999.21 999.28 999.31 999.30 999.24 999.13 999.00 998.86 998.73 998.62 998.56 998.55 998.60 998.71 998.87 999.08 999.33 999.62 999.94 1000.30 1000.69 1001.13 1001.60 1002.12 1002.68 1003.28 1003.92 1004.58 1005.27
1004.52 1003.82 1003.07 1002.30 1001.53 1000.81 1000.17 999.62 999.20 998.89 998.70 998.61 998.59 998.62 998.66 998.69 998.68 998.64 998.55 998.43 998.29 998.15 998.03 997.95 997.92 997.96 998.05 998.21 998.42 998.67 998.96 999.28 999.62 999.98 1000.37 1000.78 1001.23 1001.71 1002.24 1002.80 1003.40 1004.03 1004.69
1004.45 1003.76 1003.01 1002.23 1001.46 1000.73 1000.07 999.50 999.04 998.70 998.46 998.32 998.26 998.23 998.23 998.21 998.18 998.11 998.00 997.87 997.73 997.60 997.50 997.44 997.44 997.50 997.63 997.82 998.07 998.36 998.67 999.01 999.37 999.74 1000.12 1000.52 1000.95 1001.41 1001.91 1002.44 1003.02 1003.63 1004.27
1004.50 1003.83 1003.10 1002.34 1001.57 1000.84 1000.16 999.57 999.08 998.70 998.41 998.22 998.11 998.03 997.98 997.93 997.87 997.77 997.66 997.52 997.38 997.26 997.17 997.12 997.14 997.22 997.36 997.57 997.84 998.14 998.47 998.82 999.18 999.56 999.94 1000.34 1000.76 1001.22 1001.70 1002.22 1002.79 1003.38 1004.00
1004.61 1003.98 1003.30 1002.57 1001.83 1001.11 1000.43 999.83 999.31 998.89 998.57 998.33 998.17 998.05 997.96 997.87 997.78 997.67 997.54 997.40 997.26 997.14 997.05 997.01 997.02 997.11 997.25 997.46 997.72 998.02 998.35 998.70 999.07 999.45 999.83 1000.24 1000.67 1001.12 1001.61 1002.13 1002.68 1003.26 1003.87
1004.73 1004.17 1003.55 1002.88 1002.18 1001.49 1000.83 1000.23 999.70 999.26 998.91 998.63 998.43 998.27 998.14 998.02 997.90 997.77 997.63 997.49 997.35 997.22 997.13 997.08 997.09 997.16 997.29 997.49 997.73 998.01 998.33 998.67 999.03 999.41 999.80 1000.21 1000.64 1001.10 1001.60 1002.12 1002.67 1003.24 1003.83
Thickness
5644 5639 5634 5630 5627 5625 5623 5622 5621 5620 5619 5618 5617 5617 5617 5618 5619 5620 5621 5624 5627 5631 5635 5638 5641 5646 5650 5655 5661 5667 5674 5680 5682 5690 5698 5701 5703 5705 5705 5707 5709 5711 5711
5637 5631 5626 5623 5619 5616 5615 5612 5611 5609 5607 5606 5605 5604 5603 5603 5603 5604 5605 5608 5612 5617 5622 5626 5630 5634 5638 5643 5649 5656 5662 5669 5674 5678 5685 5690 5694 5697 5698 5700 5702 5703 5703
5629 5623 5618 5614 5611 5608 5605 5603 5601 5598 5596 5594 5591 5589 5587 5585 5585 5586 5588 5590 5594 5599 5606 5612 5617 5621 5626 5631 5637 5644 5651 5659 5664 5669 5675 5682 5685 5688 5689 5691 5693 5694 5696
5621 5615 5610 5606 5603 5600 5597 5594 5591 5587 5584 5581 5577 5574 5571 5568 5567 5567 5568 5571 5574 5580 5588 5596 5603 5609 5614 5619 5625 5632 5639 5645 5652 5659 5666 5672 5676 5679 5681 5681 5682 5686 5688
5614 5608 5603 5600 5596 5592 5588 5584 5581 5576 5572 5568 5563 5559 5555 5551 5551 5550 5550 5552 5556 5561 5569 5578 5587 5596 5603 5608 5615 5620 5627 5633 5640 5647 5654 5662 5666 5669 5673 5676 5676 5677 5679
5607 5602 5597 5592 5588 5584 5579 5575 5571 5566 5560 5555 5549 5545 5540 5538 5536 5533 5531 5532 5536 5542 5550 5559 5569 5579 5588 5596 5603 5610 5617 5624 5629 5637 5645 5651 5659 5666 5669 5670 5670 5670 5670
5601 5596 5590 5585 5580 5576 5571 5567 5561 5555 5549 5543 5538 5533 5529 5525 5521 5518 5515 5514 5519 5526 5534 5542 5551 5567 5575 5583 5589 5597 5605 5614 5622 5630 5636 5644 5651 5659 5664 5664 5665 5666 5668
5595 5589 5583 5578 5573 5568 5563 5558 5552 5546 5540 5535 5530 5525 5520 5516 5511 5506 5503 5503 5508 5515 5523 5530 5538 5551 5564 5572 5578 5584 5593 5603 5612 5621 5630 5637 5642 5648 5656 5659 5661 5661 5662
5591 5583 5577 5571 5566 5562 5557 5551 5546 5540 5534 5528 5524 5519 5513 5509 5503 5498 5494 5496 5501 5507 5514 5522 5531 5541 5552 5561 5569 5577 5584 5592 5599 5609 5619 5626 5632 5639 5645 5649 5652 5653 5652
5585 5577 5571 5565 5561 5557 5552 5547 5541 5535 5530 5525 5520 5515 5510 5505 5500 5495 5490 5492 5496 5501 5508 5516 5525 5534 5542 5550 5559 5565 5573 5582 5591 5598 5606 5615 5624 5631 5637 5644 5649 5649 5648
5580 5573 5567 5561 5557 5554 5550 5545 5539 5533 5528 5522 5518 5513 5508 5504 5500 5495 5491 5491 5494 5498 5504 5512 5521 5528 5535 5542 5550 5558 5565 5574 5582 5590 5598 5607 5616 5624 5632 5636 5642 5648 5648
5576 5569 5564 5559 5555 5553 5547 5542 5537 5532 5526 5521 5517 5512 5508 5504 5500 5496 5493 5490 5492 5497 5503 5510 5517 5523 5529 5535 5542 5550 5557 5564 5574 5582 5590 5599 5609 5618 5625 5630 5635 5641 5646
5571 5565 5561 5557 5554 5550 5545 5541 5536 5532 5526 5521 5516 5511 5507 5503 5500 5496 5493 5491 5491 5495 5501 5506 5512 5516 5521 5528 5535 5542 5549 5558 5568 5576 5585 5595 5604 5612 5617 5622 5627 5631 5636
5568 5563 5559 5556 5553 5549 5545 5540 5535 5531 5526 5521 5515 5510 5506 5503 5501 5499 5498 5495 5493 5496 5500 5504 5507 5511 5518 5526 5531 5536 5544 5554 5563 5572 5581 5590 5598 5604 5610 5615 5619 5621 5622
5565 5560 5557 5554 5551 5548 5544 5540 5535 5532 5525 5517 5514 5509 5505 5502 5496 5494 5496 5498 5499 5500 5503 5506 5510 5513 5518 5525 5531 5537 5543 5550 5559 5567 5577 5585 5592 5598 5603 5607 5611 5613 5616
5563 5559 5556 5553 5551 5547 5544 5541 5537 5531 5523 5516 5508 5501 5502 5497 5495 5495 5495 5496 5497 5500 5504 5509 5513 5517 5522 5528 5532 5537 5542 5549 5556 5563 5571 5579 5586 5592 5597 5600 5604 5609 5612
5561 5558 5555 5554 5551 5547 5545 5541 5538 5534 5525 5518 5511 5504 5500 5497 5496 5496 5496 5497 5499 5501 5508 5514 5517 5521 5526 5530 5535 5540 5544 5549 5555 5561 5567 5574 5581 5587 5591 5596 5600 5604 5606
5562 5559 5556 5555 5552 5549 5547 5544 5541 5536 5533 5529 5518 5509 5504 5501 5500 5499 5499 5500 5507 5508 5515 5519 5523 5526 5530 5533 5538 5542 5546 5551 5554 5559 5564 5570 5576 5582 5587 5592 5596 5601 5604
5563 5561 5558 5556 5554 5552 5550 5547 5543 5539 5536 5532 5528 5518 5509 5505 5502 5502 5501 5508 5516 5520 5523 5526 5529 5531 5534 5537 5540 5544 5548 5552 5555 5558 5562 5567 5573 5578 5584 5588 5594 5595 5601
5565 5562 5558 5558 5557 5555 5553 5549 5545 5541 5538 5535 5531 5528 5521 5516 5517 5514 5512 5517 5521 5525 5527 5531 5534 5536 5537 5539 5542 5545 5549 5552 5555 5557 5561 5565 5571 5576 5581 5586 5592 5595 5600
5565 5563 5560 5560 5559 5556 5554 5551 5547 5543 5540 5537 5535 5530 5522 5525 5525 5525 5525 5526 5527 5530 5532 5534 5537 5539 5541 5542 5544 5546 5548 5551 5554 5556 5559 5563 5568 5573 5579 5584 5589 5593 5598
5564 5562 5561 5560 5559 5557 5555 5552 5549 5545 5543 5540 5538 5533 5526 5526 5529 5530 5531 5531 5532 5533 5535 5536 5538 5541 5542 5544 5545 5546 5548 5551 5553 5555 5558 5562 5567 5572 5577 5581 5586 5591 5597
5564 5561 5560 5560 5559 5557 5557 5555 5551 5547 5545 5542 5540 5538 5535 5534 5533 5533 5534 5535 5535 5536 5536 5537 5538 5540 5542 5543 5544 5546 5547 5550 5552 5555 5557 5561 5566 5571 5576 5581 5586 5591 5596
5563 5560 5559 5558 5558 5558 5556 5554 5552 5549 5546 5544 5542 5540 5538 5537 5536 5536 5536 5536 5536 5536 5537 5537 5538 5540 5541 5541 5542 5543 5545 5547 5550 5553 5557 5561 5566 5571 5576 5580 5586 5591 5596
5562 5558 5556 5555 5556 5556 5555 5554 5552 5550 5548 5545 5544 5542 5540 5539 5538 5538 5537 5537 5536 5536 5536 5537 5537 5538 5539 5539 5539 5540 5540 5542 5546 5552 5557 5562 5567 5572 5577 5581 5586 5591 5595
5559 5555 5553 5552 5552 5553 5553 5553 5552 5551 5549 5547 5544 5542 5540 5539 5538 5538 5537 5536 5536 5536 5536 5536 5536 5537 5537 5537 5537 5536 5537 5540 5544 5551 5559 5565 5570 5574 5578 5582 5586 5590 5593